DAL1134 KLGA-KCHS

Flight info

Callsign DAL1134
Flight time 1h 32m
Altitude 36000
Route WHITE Q409 CRPLR DFENC Q109 JOHAR AMYLU AMYLU3
Aircraft B738/M-SDE2E3FGHIRWXY/LB1

Departure

Time 2026-04-21 23:59
Airport LaGuardia Airport (KLGA)

Arrival

Time 2026-04-22 01:31
Airport Charleston International Airport (KCHS)
Time Latitude Longitude Altitude Speed Heading
2026-04-21 23:41 40.77141 -73.86371 19 ft 0 kts 132°
2026-04-21 23:47 40.77142 -73.86371 19 ft 1 kts 132°
2026-04-21 23:47 40.77157 -73.86394 19 ft 3 kts 132°
2026-04-21 23:47 40.77168 -73.86410 21 ft 4 kts 77°
2026-04-21 23:47 40.77157 -73.86434 19 ft 2 kts 42°
2026-04-21 23:48 40.77171 -73.86417 21 ft 1 kts 42°
2026-04-21 23:48 40.77172 -73.86417 21 ft 0 kts 42°
2026-04-21 23:53 40.77177 -73.86410 19 ft 0 kts 43°
2026-04-21 23:53 40.77188 -73.86397 18 ft 3 kts 44°
2026-04-21 23:54 40.77198 -73.86384 19 ft 4 kts 44°
2026-04-21 23:54 40.77203 -73.86377 19 ft 3 kts 43°
2026-04-21 23:54 40.77260 -73.86312 16 ft 16 kts 37°
2026-04-21 23:54 40.77374 -73.86300 12 ft 19 kts 310°
2026-04-21 23:55 40.77444 -73.86444 11 ft 19 kts 301°
2026-04-21 23:55 40.77525 -73.86611 11 ft 25 kts 303°
2026-04-21 23:55 40.77628 -73.86826 11 ft 30 kts 303°
2026-04-21 23:55 40.77734 -73.87050 12 ft 28 kts 303°
2026-04-21 23:56 40.77833 -73.87257 12 ft 20 kts 302°
2026-04-21 23:56 40.77901 -73.87402 14 ft 17 kts 302°
2026-04-21 23:56 40.77916 -73.87433 14 ft 0 kts 302°
2026-04-21 23:56 40.77916 -73.87434 14 ft 1 kts 302°
2026-04-21 23:57 40.77946 -73.87497 15 ft 16 kts 302°
2026-04-21 23:57 40.78036 -73.87682 16 ft 31 kts 302°
2026-04-21 23:57 40.78127 -73.87848 17 ft 8 kts 331°
2026-04-21 23:57 40.78129 -73.87849 17 ft 0 kts 333°
2026-04-21 23:58 40.78151 -73.87860 18 ft 9 kts 342°
2026-04-21 23:58 40.78214 -73.87817 16 ft 15 kts 107°
2026-04-21 23:58 40.78107 -73.87596 13 ft 62 kts 122°
2026-04-21 23:59 40.77738 -73.86824 12 ft 135 kts 122°
2026-04-21 23:59 40.77133 -73.85608 283 ft 175 kts 124°
2026-04-21 23:59 40.76473 -73.84214 1227 ft 178 kts 133°
2026-04-21 23:59 40.75418 -73.83428 2079 ft 183 kts 172°
2026-04-22 00:00 40.74082 -73.83177 2443 ft 204 kts 173°
2026-04-22 00:00 40.72638 -73.82819 2915 ft 217 kts 171°
2026-04-22 00:00 40.71133 -73.82579 3520 ft 222 kts 189°
2026-04-22 00:00 40.69621 -73.83008 4233 ft 223 kts 196°
2026-04-22 00:01 40.68160 -73.83467 4903 ft 227 kts 205°
2026-04-22 00:01 40.66777 -73.84531 5468 ft 234 kts 218°
2026-04-22 00:01 40.65376 -73.85823 5839 ft 258 kts 219°
2026-04-22 00:01 40.63866 -73.87212 6535 ft 270 kts 219°
2026-04-22 00:02 40.62301 -73.88638 7303 ft 276 kts 220°
2026-04-22 00:02 40.60704 -73.90076 8138 ft 281 kts 220°
2026-04-22 00:02 40.59079 -73.91530 8999 ft 284 kts 221°
2026-04-22 00:02 40.57426 -73.93000 9688 ft 289 kts 222°
2026-04-22 00:03 40.55746 -73.94487 10023 ft 292 kts 222°
2026-04-22 00:03 40.54037 -73.95997 10123 ft 304 kts 222°
2026-04-22 00:03 40.52213 -73.97616 10338 ft 329 kts 221°
2026-04-22 00:03 40.50270 -73.99332 10814 ft 342 kts 221°
2026-04-22 00:04 40.48273 -74.01079 11530 ft 347 kts 220°
2026-04-22 00:04 40.46246 -74.02844 12306 ft 351 kts 220°
2026-04-22 00:04 40.44211 -74.04614 13084 ft 354 kts 220°
2026-04-22 00:04 40.42158 -74.06399 13813 ft 359 kts 220°
2026-04-22 00:05 40.40066 -74.08218 14519 ft 363 kts 220°
2026-04-22 00:05 40.37953 -74.10054 15214 ft 366 kts 220°
2026-04-22 00:05 40.35932 -74.11809 15883 ft 369 kts 220°
2026-04-22 00:05 40.33790 -74.13670 16575 ft 372 kts 220°
2026-04-22 00:06 40.31616 -74.15556 17251 ft 376 kts 220°
2026-04-22 00:06 40.29421 -74.17461 17935 ft 380 kts 220°
2026-04-22 00:06 40.27209 -74.19379 18596 ft 384 kts 220°
2026-04-22 00:06 40.24973 -74.21317 19141 ft 387 kts 220°
2026-04-22 00:07 40.22713 -74.23272 19709 ft 390 kts 220°
2026-04-22 00:07 40.20440 -74.25237 20284 ft 394 kts 220°
2026-04-22 00:07 40.18146 -74.27219 20824 ft 397 kts 220°
2026-04-22 00:07 40.15826 -74.29223 21384 ft 401 kts 220°
2026-04-22 00:08 40.13488 -74.31240 21923 ft 404 kts 220°
2026-04-22 00:08 40.11159 -74.33247 22442 ft 408 kts 220°
2026-04-22 00:08 40.08785 -74.35292 22958 ft 411 kts 220°
2026-04-22 00:08 40.06387 -74.37355 23477 ft 414 kts 220°
2026-04-22 00:09 40.03950 -74.39450 23983 ft 417 kts 220°
2026-04-22 00:09 40.01547 -74.41514 24393 ft 420 kts 220°
2026-04-22 00:09 39.99093 -74.43619 24801 ft 422 kts 220°
2026-04-22 00:09 39.96631 -74.45730 25226 ft 425 kts 220°
2026-04-22 00:10 39.94157 -74.47849 25634 ft 427 kts 220°
2026-04-22 00:10 39.91666 -74.49981 26032 ft 430 kts 220°
2026-04-22 00:10 39.89156 -74.52127 26431 ft 432 kts 220°
2026-04-22 00:10 39.86632 -74.54285 26811 ft 435 kts 220°
2026-04-22 00:11 39.84092 -74.56452 27189 ft 437 kts 220°
2026-04-22 00:11 39.81545 -74.58625 27566 ft 440 kts 220°
2026-04-22 00:11 39.78979 -74.60812 27936 ft 442 kts 220°
2026-04-22 00:11 39.76397 -74.63009 28294 ft 444 kts 220°
2026-04-22 00:12 39.73806 -74.65213 28653 ft 447 kts 219°
2026-04-22 00:12 39.71231 -74.67462 28981 ft 447 kts 223°
2026-04-22 00:12 39.68773 -74.69944 29293 ft 447 kts 225°
2026-04-22 00:12 39.66376 -74.72528 29606 ft 449 kts 226°
2026-04-22 00:13 39.63987 -74.75151 29935 ft 451 kts 226°
2026-04-22 00:13 39.61581 -74.77782 30263 ft 453 kts 226°
2026-04-22 00:13 39.59163 -74.80397 30604 ft 453 kts 226°
2026-04-22 00:13 39.56732 -74.82994 31033 ft 451 kts 226°
2026-04-22 00:14 39.54313 -74.85559 31491 ft 448 kts 226°
2026-04-22 00:14 39.51906 -74.88102 31888 ft 446 kts 226°
2026-04-22 00:14 39.49506 -74.90636 32241 ft 445 kts 226°
2026-04-22 00:14 39.47107 -74.93167 32577 ft 445 kts 226°
2026-04-22 00:15 39.44709 -74.95695 32959 ft 443 kts 226°
2026-04-22 00:15 39.42327 -74.98204 33350 ft 441 kts 226°
2026-04-22 00:15 39.39950 -75.00707 33725 ft 440 kts 226°
2026-04-22 00:15 39.37585 -75.03196 34062 ft 439 kts 226°
2026-04-22 00:16 39.35217 -75.05687 34389 ft 438 kts 226°
2026-04-22 00:16 39.32864 -75.08158 34690 ft 436 kts 225°
2026-04-22 00:16 39.30513 -75.10623 34965 ft 435 kts 225°
2026-04-22 00:16 39.28205 -75.13159 35141 ft 435 kts 228°
2026-04-22 00:17 39.25990 -75.15740 35332 ft 435 kts 229°
2026-04-22 00:17 39.23770 -75.18379 35582 ft 434 kts 229°
2026-04-22 00:17 39.21550 -75.21020 35833 ft 434 kts 229°
2026-04-22 00:17 39.19325 -75.23650 36026 ft 434 kts 229°
2026-04-22 00:18 39.17087 -75.26280 36228 ft 435 kts 228°
2026-04-22 00:18 39.12572 -75.31553 36269 ft 440 kts 228°
2026-04-22 00:19 39.08040 -75.36822 36255 ft 436 kts 228°
2026-04-22 00:19 39.03445 -75.41888 36254 ft 440 kts 218°
2026-04-22 00:19 39.00706 -75.43705 36276 ft 447 kts 206°
2026-04-22 00:20 38.97693 -75.44822 36266 ft 456 kts 194°
2026-04-22 00:20 38.91356 -75.45684 36282 ft 459 kts 190°
2026-04-22 00:21 38.85002 -75.46443 36289 ft 458 kts 191°
2026-04-22 00:21 38.78657 -75.47300 36298 ft 459 kts 191°
2026-04-22 00:22 38.72296 -75.48184 36298 ft 460 kts 191°
2026-04-22 00:22 38.65910 -75.49056 36296 ft 462 kts 191°
2026-04-22 00:23 38.59510 -75.49923 36306 ft 464 kts 191°
2026-04-22 00:23 38.57325 -75.50218 36308 ft 464 kts 191°
2026-04-22 00:24 38.50891 -75.51090 36306 ft 465 kts 191°
2026-04-22 00:24 38.44487 -75.51956 36293 ft 466 kts 191°
2026-04-22 00:25 38.38030 -75.52846 36302 ft 466 kts 194°
2026-04-22 00:25 38.31977 -75.55245 36308 ft 451 kts 212°
2026-04-22 00:26 38.26759 -75.59464 36309 ft 443 kts 221°
2026-04-22 00:26 38.21705 -75.63956 36294 ft 443 kts 221°
2026-04-22 00:27 38.16635 -75.68412 36308 ft 443 kts 220°
2026-04-22 00:27 38.11546 -75.72841 36315 ft 444 kts 220°
2026-04-22 00:28 38.07282 -75.76485 36316 ft 445 kts 219°
2026-04-22 00:28 38.02004 -75.80695 36290 ft 445 kts 218°
2026-04-22 00:29 37.96775 -75.84802 36315 ft 445 kts 218°
2026-04-22 00:29 37.91495 -75.88977 36325 ft 444 kts 218°
2026-04-22 00:30 37.86292 -75.93110 36321 ft 444 kts 218°
2026-04-22 00:30 37.81060 -75.97268 36300 ft 444 kts 218°
2026-04-22 00:31 37.75832 -76.01415 36301 ft 444 kts 218°
2026-04-22 00:31 37.70601 -76.05558 36305 ft 444 kts 218°
2026-04-22 00:32 37.65368 -76.09694 36307 ft 444 kts 218°
2026-04-22 00:32 37.60135 -76.13825 36319 ft 444 kts 218°
2026-04-22 00:33 37.54897 -76.17950 36318 ft 444 kts 218°
2026-04-22 00:33 37.49655 -76.22073 36317 ft 444 kts 218°
2026-04-22 00:34 37.44412 -76.26191 36319 ft 445 kts 218°
2026-04-22 00:34 37.39154 -76.30312 36318 ft 445 kts 218°
2026-04-22 00:35 37.33921 -76.34407 36320 ft 446 kts 218°
2026-04-22 00:35 37.28649 -76.38526 36309 ft 447 kts 218°
2026-04-22 00:36 37.23367 -76.42645 36299 ft 447 kts 218°
2026-04-22 00:36 37.18077 -76.46765 36295 ft 448 kts 218°
2026-04-22 00:37 37.12781 -76.50881 36286 ft 448 kts 218°
2026-04-22 00:37 37.07490 -76.54986 36297 ft 447 kts 218°
2026-04-22 00:38 37.02201 -76.59083 36286 ft 447 kts 218°
2026-04-22 00:38 36.96919 -76.63168 36291 ft 446 kts 218°
2026-04-22 00:39 36.91646 -76.67240 36295 ft 445 kts 219°
2026-04-22 00:39 36.86411 -76.71276 36314 ft 444 kts 219°
2026-04-22 00:40 36.81151 -76.75324 36319 ft 444 kts 219°
2026-04-22 00:40 36.75892 -76.79366 36323 ft 444 kts 219°
2026-04-22 00:41 36.70628 -76.83405 36314 ft 444 kts 219°
2026-04-22 00:41 36.65368 -76.87433 36305 ft 444 kts 219°
2026-04-22 00:42 36.60099 -76.91463 36304 ft 444 kts 219°
2026-04-22 00:42 36.54828 -76.95487 36311 ft 445 kts 219°
2026-04-22 00:43 36.49554 -76.99507 36300 ft 445 kts 219°
2026-04-22 00:43 36.44270 -77.03527 36315 ft 445 kts 219°
2026-04-22 00:44 36.38977 -77.07548 36315 ft 446 kts 219°
2026-04-22 00:44 36.33681 -77.11565 36314 ft 446 kts 219°
2026-04-22 00:45 36.28386 -77.15576 36294 ft 446 kts 219°
2026-04-22 00:45 36.23087 -77.19581 36308 ft 446 kts 219°
2026-04-22 00:46 36.17815 -77.23561 36302 ft 446 kts 219°
2026-04-22 00:46 36.12480 -77.27581 36314 ft 446 kts 219°
2026-04-22 00:47 36.07184 -77.31565 36311 ft 445 kts 219°
2026-04-22 00:47 36.01933 -77.35509 36298 ft 444 kts 219°
2026-04-22 00:48 35.96656 -77.39468 36304 ft 443 kts 219°
2026-04-22 00:48 35.91384 -77.43415 36302 ft 443 kts 219°
2026-04-22 00:49 35.86110 -77.47359 36299 ft 442 kts 219°
2026-04-22 00:49 35.80851 -77.51285 36305 ft 441 kts 219°
2026-04-22 00:50 35.75637 -77.55171 36312 ft 440 kts 219°
2026-04-22 00:50 35.70396 -77.59072 36319 ft 440 kts 219°
2026-04-22 00:51 35.65158 -77.62964 36318 ft 440 kts 219°
2026-04-22 00:51 35.59919 -77.66850 36291 ft 439 kts 218°
2026-04-22 00:52 35.54694 -77.70721 36311 ft 438 kts 218°
2026-04-22 00:52 35.49468 -77.74586 36319 ft 438 kts 218°
2026-04-22 00:53 35.44249 -77.78440 36328 ft 438 kts 218°
2026-04-22 00:53 35.39016 -77.82299 36319 ft 439 kts 218°
2026-04-22 00:54 35.33786 -77.86150 36322 ft 439 kts 218°
2026-04-22 00:54 35.28553 -77.89997 36320 ft 439 kts 218°
2026-04-22 00:55 35.23318 -77.93839 36324 ft 438 kts 218°
2026-04-22 00:55 35.20721 -77.95738 36097 ft 431 kts 218°
2026-04-22 00:55 35.15581 -77.99502 34810 ft 434 kts 218°
2026-04-22 00:56 35.12970 -78.01418 34024 ft 439 kts 218°
2026-04-22 00:56 35.10340 -78.03346 33221 ft 443 kts 218°
2026-04-22 00:56 35.07684 -78.05288 32424 ft 446 kts 218°
2026-04-22 00:56 35.05007 -78.07243 31648 ft 449 kts 218°
2026-04-22 00:57 35.02314 -78.09206 30883 ft 452 kts 217°
2026-04-22 00:57 34.99642 -78.11152 30089 ft 454 kts 217°
2026-04-22 00:57 34.96890 -78.13155 29172 ft 456 kts 217°
2026-04-22 00:57 34.94211 -78.15101 28648 ft 451 kts 217°
2026-04-22 00:58 34.91518 -78.17053 28469 ft 451 kts 217°
2026-04-22 00:58 34.88806 -78.19024 28361 ft 456 kts 217°
2026-04-22 00:58 34.83322 -78.23008 28320 ft 461 kts 217°
2026-04-22 00:59 34.77824 -78.26988 28309 ft 459 kts 217°
2026-04-22 00:59 34.72340 -78.30953 28316 ft 458 kts 217°
2026-04-22 01:00 34.66868 -78.34905 28319 ft 458 kts 217°
2026-04-22 01:00 34.61706 -78.38628 28324 ft 457 kts 217°
2026-04-22 01:01 34.58999 -78.40573 28011 ft 447 kts 217°
2026-04-22 01:01 34.56324 -78.42496 27214 ft 448 kts 217°
2026-04-22 01:01 34.53636 -78.44433 26221 ft 453 kts 217°
2026-04-22 01:01 34.50909 -78.46399 25173 ft 456 kts 217°
2026-04-22 01:02 34.48199 -78.48344 24171 ft 451 kts 217°
2026-04-22 01:02 34.45510 -78.50271 22968 ft 447 kts 216°
2026-04-22 01:02 34.42844 -78.52181 21835 ft 442 kts 216°
2026-04-22 01:02 34.40213 -78.54066 20824 ft 436 kts 216°
2026-04-22 01:03 34.37628 -78.55917 19877 ft 429 kts 216°
2026-04-22 01:03 34.35078 -78.57741 18940 ft 423 kts 215°
2026-04-22 01:03 34.32627 -78.59645 17907 ft 414 kts 221°
2026-04-22 01:03 34.30518 -78.61935 16850 ft 404 kts 229°
2026-04-22 01:04 34.28551 -78.64339 15830 ft 400 kts 229°
2026-04-22 01:04 34.26629 -78.66696 14839 ft 397 kts 229°
2026-04-22 01:04 34.24689 -78.69065 13888 ft 399 kts 229°
2026-04-22 01:04 34.22747 -78.71419 13589 ft 388 kts 228°
2026-04-22 01:05 34.20863 -78.73688 13298 ft 377 kts 228°
2026-04-22 01:05 34.19031 -78.75886 13012 ft 366 kts 228°
2026-04-22 01:05 34.17245 -78.78024 12743 ft 355 kts 228°
2026-04-22 01:05 34.15530 -78.80076 12477 ft 341 kts 228°
2026-04-22 01:06 34.13875 -78.82054 12210 ft 328 kts 228°
2026-04-22 01:06 34.12281 -78.83958 11941 ft 317 kts 228°
2026-04-22 01:06 34.10738 -78.85800 11697 ft 307 kts 228°
2026-04-22 01:06 34.09238 -78.87591 11443 ft 300 kts 228°
2026-04-22 01:07 34.07765 -78.89351 11190 ft 296 kts 228°
2026-04-22 01:07 34.06311 -78.91086 11046 ft 292 kts 228°
2026-04-22 01:07 34.04859 -78.92819 11018 ft 296 kts 228°
2026-04-22 01:07 34.03385 -78.94579 11014 ft 301 kts 228°
2026-04-22 01:08 34.01897 -78.96353 11007 ft 301 kts 228°
2026-04-22 01:08 34.00411 -78.98121 10999 ft 300 kts 228°
2026-04-22 01:08 33.98926 -78.99888 10996 ft 299 kts 228°
2026-04-22 01:08 33.97447 -79.01645 11001 ft 299 kts 228°
2026-04-22 01:09 33.95986 -79.03382 11002 ft 298 kts 227°
2026-04-22 01:09 33.94489 -79.05160 11010 ft 298 kts 228°
2026-04-22 01:09 33.93030 -79.06892 11015 ft 298 kts 227°
2026-04-22 01:09 33.91554 -79.08642 11016 ft 298 kts 227°
2026-04-22 01:10 33.90075 -79.10396 11012 ft 298 kts 227°
2026-04-22 01:10 33.88599 -79.12145 11013 ft 298 kts 227°
2026-04-22 01:10 33.87125 -79.13891 11015 ft 298 kts 227°
2026-04-22 01:10 33.85649 -79.15639 11015 ft 297 kts 227°
2026-04-22 01:11 33.84165 -79.17397 11027 ft 302 kts 227°
2026-04-22 01:11 33.82654 -79.19185 11025 ft 306 kts 227°
2026-04-22 01:11 33.81136 -79.20978 11014 ft 305 kts 227°
2026-04-22 01:11 33.79625 -79.22762 11003 ft 304 kts 227°
2026-04-22 01:12 33.78054 -79.24462 11003 ft 305 kts 219°
2026-04-22 01:12 33.76296 -79.25876 11012 ft 302 kts 214°
2026-04-22 01:12 33.74515 -79.27176 10996 ft 299 kts 213°
2026-04-22 01:12 33.72714 -79.28476 11013 ft 305 kts 213°
2026-04-22 01:13 33.70884 -79.29810 11018 ft 310 kts 213°
2026-04-22 01:13 33.69042 -79.31169 11013 ft 310 kts 214°
2026-04-22 01:13 33.67213 -79.32529 10998 ft 309 kts 214°
2026-04-22 01:13 33.65393 -79.33891 10999 ft 308 kts 214°
2026-04-22 01:14 33.63581 -79.35251 11002 ft 307 kts 214°
2026-04-22 01:14 33.61775 -79.36610 11004 ft 306 kts 214°
2026-04-22 01:14 33.59973 -79.37967 11009 ft 306 kts 214°
2026-04-22 01:14 33.58777 -79.38867 11011 ft 306 kts 214°
2026-04-22 01:15 33.56969 -79.40228 11012 ft 307 kts 214°
2026-04-22 01:15 33.55161 -79.41590 11016 ft 308 kts 214°
2026-04-22 01:15 33.53343 -79.42957 11009 ft 308 kts 214°
2026-04-22 01:15 33.51530 -79.44319 11014 ft 308 kts 214°
2026-04-22 01:16 33.49119 -79.46130 11008 ft 308 kts 214°
2026-04-22 01:16 33.47301 -79.47495 11008 ft 308 kts 214°
2026-04-22 01:16 33.46076 -79.48416 11010 ft 308 kts 214°
2026-04-22 01:16 33.44261 -79.49780 11011 ft 308 kts 214°
2026-04-22 01:17 33.42472 -79.51123 11009 ft 307 kts 214°
2026-04-22 01:17 33.40663 -79.52481 11010 ft 307 kts 214°
2026-04-22 01:17 33.38851 -79.53841 11012 ft 307 kts 214°
2026-04-22 01:17 33.37040 -79.55199 11011 ft 307 kts 214°
2026-04-22 01:18 33.35233 -79.56552 11010 ft 307 kts 214°
2026-04-22 01:18 33.33426 -79.57918 11009 ft 307 kts 214°
2026-04-22 01:18 33.31623 -79.59288 11009 ft 307 kts 214°
2026-04-22 01:18 33.29832 -79.60648 10994 ft 302 kts 214°
2026-04-22 01:19 33.28083 -79.61974 10818 ft 293 kts 214°
2026-04-22 01:19 33.26373 -79.63270 10418 ft 290 kts 214°
2026-04-22 01:19 33.24664 -79.64566 9923 ft 291 kts 214°
2026-04-22 01:19 33.22956 -79.65859 9432 ft 290 kts 214°
2026-04-22 01:20 33.21301 -79.67206 8988 ft 286 kts 225°
2026-04-22 01:20 33.20171 -79.69114 8538 ft 280 kts 245°
2026-04-22 01:20 33.19291 -79.71184 8102 ft 279 kts 246°
2026-04-22 01:20 33.18428 -79.73247 7698 ft 276 kts 246°
2026-04-22 01:21 33.17590 -79.75244 7609 ft 262 kts 246°
2026-04-22 01:21 33.16789 -79.77144 7385 ft 254 kts 245°
2026-04-22 01:21 33.15988 -79.79042 7077 ft 256 kts 245°
2026-04-22 01:21 33.15176 -79.80961 6679 ft 262 kts 245°
2026-04-22 01:22 33.14343 -79.82923 6268 ft 266 kts 245°
2026-04-22 01:22 33.13511 -79.84879 5872 ft 263 kts 244°
2026-04-22 01:22 33.12694 -79.86793 5458 ft 253 kts 244°
2026-04-22 01:22 33.11916 -79.88613 5149 ft 238 kts 244°
2026-04-22 01:23 33.11187 -79.90319 4869 ft 224 kts 245°
2026-04-22 01:23 33.10498 -79.91929 4599 ft 213 kts 244°
2026-04-22 01:23 33.09841 -79.93467 4353 ft 203 kts 244°
2026-04-22 01:23 33.09211 -79.94941 4090 ft 196 kts 245°
2026-04-22 01:24 33.08601 -79.96369 3835 ft 190 kts 245°
2026-04-22 01:24 33.08006 -79.97757 3579 ft 186 kts 245°
2026-04-22 01:24 33.07432 -79.99097 3324 ft 182 kts 244°
2026-04-22 01:24 33.06863 -80.00424 3064 ft 179 kts 244°
2026-04-22 01:25 33.06301 -80.01737 2809 ft 177 kts 244°
2026-04-22 01:25 33.05781 -80.03055 2536 ft 176 kts 255°
2026-04-22 01:25 33.05826 -80.04488 2315 ft 172 kts 279°
2026-04-22 01:25 33.06006 -80.05869 2035 ft 165 kts 276°
2026-04-22 01:26 33.06151 -80.07076 1785 ft 161 kts 276°
2026-04-22 01:26 33.06309 -80.08391 1699 ft 159 kts 276°
2026-04-22 01:26 33.06469 -80.09730 1630 ft 164 kts 276°
2026-04-22 01:26 33.06477 -80.11054 1584 ft 157 kts 251°
2026-04-22 01:27 33.06018 -80.12215 1599 ft 155 kts 232°
2026-04-22 01:27 33.05238 -80.13064 1595 ft 151 kts 207°
2026-04-22 01:27 33.04249 -80.13442 1598 ft 150 kts 183°
2026-04-22 01:27 33.03216 -80.13369 1592 ft 148 kts 165°
2026-04-22 01:28 33.02282 -80.12888 1615 ft 145 kts 149°
2026-04-22 01:28 33.01400 -80.12279 1592 ft 147 kts 148°
2026-04-22 01:28 33.00521 -80.11661 1599 ft 146 kts 148°
2026-04-22 01:28 32.99629 -80.11081 1599 ft 147 kts 150°
2026-04-22 01:29 32.98746 -80.10464 1603 ft 147 kts 148°
2026-04-22 01:29 32.97878 -80.09815 1566 ft 149 kts 147°
2026-04-22 01:29 32.97007 -80.09154 1389 ft 148 kts 147°
2026-04-22 01:29 32.96148 -80.08500 1199 ft 145 kts 146°
2026-04-22 01:30 32.95306 -80.07859 980 ft 143 kts 146°
2026-04-22 01:30 32.94463 -80.07205 795 ft 146 kts 145°
2026-04-22 01:30 32.93601 -80.06546 611 ft 149 kts 147°
2026-04-22 01:30 32.92705 -80.05873 428 ft 155 kts 146°
2026-04-22 01:31 32.91787 -80.05175 214 ft 158 kts 146°
2026-04-22 01:31 32.90860 -80.04478 44 ft 152 kts 147°
2026-04-22 01:31 32.90108 -80.03903 40 ft 99 kts 147°
2026-04-22 01:31 32.89687 -80.03589 37 ft 43 kts 149°
2026-04-22 01:32 32.89538 -80.03583 38 ft 19 kts 182°
2026-04-22 01:32 32.89412 -80.03592 40 ft 17 kts 180°
2026-04-22 01:32 32.89298 -80.03593 40 ft 16 kts 182°
2026-04-22 01:32 32.89194 -80.03597 40 ft 14 kts 182°
2026-04-22 01:33 32.89097 -80.03599 40 ft 13 kts 181°
2026-04-22 01:33 32.89007 -80.03602 40 ft 13 kts 185°
2026-04-22 01:33 32.88923 -80.03615 40 ft 12 kts 188°
2026-04-22 01:33 32.88842 -80.03629 40 ft 11 kts 188°
2026-04-22 01:34 32.88767 -80.03638 40 ft 10 kts 179°
2026-04-22 01:34 32.88699 -80.03648 40 ft 9 kts 170°
2026-04-22 01:34 32.88666 -80.03606 40 ft 0 kts 117°
2026-04-22 01:35 32.88660 -80.03586 40 ft 8 kts 110°
2026-04-22 01:35 32.88629 -80.03514 40 ft 8 kts 141°
2026-04-22 01:35 32.88590 -80.03531 40 ft 4 kts 237°
2026-04-22 01:35 32.88580 -80.03549 40 ft 1 kts 237°
2026-04-22 01:36 32.88578 -80.03553 37 ft 0 kts 237°
2026-04-22 01:36 32.88577 -80.03555 38 ft 0 kts 237°